| time (UTC) | temp C | wind direction | speed KPH | gust KPH | rain 1hr cm | rain 24hr cm | rain mn cm | humidity % | barometer mb |
| 20260504150529 | 12 | 0.0 | 3.2 | 0.10 | 0.15 | 0.15 | 93 | 1013.0 | |
| 20260504140611 | 13 | 90 | 0.0 | 3.2 | 0.00 | 0.05 | 0.05 | 88 | 1013.1 |
| 20260504130612 | 15 | 23 | 0.0 | 3.2 | 0.00 | 0.13 | 0.05 | 76 | 1013.4 |
| 20260504110615 | 16 | 270 | 0.0 | 3.2 | 0.05 | 0.13 | 0.05 | 74 | 1013.8 |
| 20260504100557 | 14 | 199 | 1.6 | 3.2 | 0.00 | 0.05 | 0.00 | 83 | 1014.1 |
| 20260504081522 | 14 | 0.0 | 0.0 | 0.00 | 0.05 | 0.00 | 76 | 1013.5 | |
| 20260504080519 | 14 | 0.0 | 3.2 | 0.00 | 0.05 | 0.00 | 76 | 1013.5 | |
| 20260504050523 | 7 | 0.0 | 0.0 | 0.00 | 0.05 | 0.00 | 99 | 1013.0 | |
| 20260504045520 | 7 | 0.0 | 0.0 | 0.00 | 0.05 | 0.00 | 99 | 1013.0 | |
| 20260504044517 | 7 | 0.0 | 0.0 | 0.00 | 0.05 | 0.00 | 99 | 1013.0 | |
| 20260504043634 | 6 | 0.0 | 0.0 | 0.00 | 0.05 | 0.00 | 99 | 1013.0 | |
| 20260504042610 | 6 | 0.0 | 0.0 | 0.00 | 0.05 | 0.00 | 99 | 1012.8 | |
| 20260504041608 | 6 | 0.0 | 0.0 | 0.00 | 0.05 | 0.00 | 99 | 1012.9 | |
| 20260504040604 | 6 | 0.0 | 0.0 | 0.00 | 0.05 | 0.00 | 99 | 1013.0 | |
| 20260504035602 | 6 | 0.0 | 0.0 | 0.00 | 0.05 | 0.00 | 99 | 1013.0 | |
| 20260504034558 | 5 | 0.0 | 0.0 | 0.00 | 0.05 | 0.00 | 99 | 1012.9 | |
| 20260504033615 | 5 | 0.0 | 0.0 | 0.00 | 0.05 | 0.00 | 99 | 1012.9 | |
| 20260504032612 | 5 | 0.0 | 0.0 | 0.00 | 0.05 | 0.00 | 99 | 1013.0 | |
| 20260504031609 | 5 | 0.0 | 0.0 | 0.00 | 0.05 | 0.00 | 99 | 1012.9 | |
| 20260504030546 | 5 | 0.0 | 0.0 | 0.00 | 0.05 | 0.00 | 99 | 1013.0 | |
| 20260504025543 | 5 | 0.0 | 0.0 | 0.00 | 0.05 | 0.00 | 99 | 1012.8 | |
| 20260504024540 | 6 | 0.0 | 0.0 | 0.00 | 0.05 | 0.00 | 99 | 1012.7 | |
| 20260504023537 | 6 | 0.0 | 0.0 | 0.00 | 0.05 | 0.00 | 99 | 1012.7 | |
| 20260504022533 | 5 | 0.0 | 0.0 | 0.00 | 0.05 | 0.00 | 99 | 1012.7 | |
| 20260504021530 | 6 | 0.0 | 0.0 | 0.00 | 0.05 | 0.00 | 99 | 1012.8 | |
| 20260504020527 | 6 | 0.0 | 0.0 | 0.00 | 0.05 | 0.00 | 99 | 1013.0 | |
| 20260504015524 | 7 | 0.0 | 0.0 | 0.00 | 0.05 | 0.00 | 99 | 1013.0 | |
| 20260504014540 | 6 | 0.0 | 0.0 | 0.00 | 0.05 | 0.00 | 99 | 1013.1 | |
| 20260504013518 | 6 | 0.0 | 0.0 | 0.00 | 0.05 | 0.00 | 99 | 1013.1 | |
| 20260504012615 | 6 | 0.0 | 0.0 | 0.00 | 0.05 | 0.00 | 99 | 1013.1 | |
| 20260504011612 | 6 | 0.0 | 0.0 | 0.00 | 0.05 | 0.00 | 99 | 1013.2 | |
| 20260504010609 | 6 | 0.0 | 0.0 | 0.00 | 0.05 | 0.00 | 99 | 1013.1 | |
| 20260504005605 | 6 | 0.0 | 0.0 | 0.00 | 0.05 | 0.00 | 99 | 1013.0 | |
| 20260504004622 | 7 | 0.0 | 0.0 | 0.00 | 0.05 | 0.00 | 99 | 1013.1 | |
| 20260504003559 | 7 | 0.0 | 0.0 | 0.00 | 0.05 | 0.00 | 99 | 1013.1 | |
| 20260504002556 | 7 | 0.0 | 0.0 | 0.00 | 0.05 | 0.00 | 99 | 1013.3 | |
| 20260504001553 | 7 | 0.0 | 0.0 | 0.00 | 0.05 | 0.00 | 99 | 1013.0 | |
| 20260504000550 | 6 | 0.0 | 0.0 | 0.00 | 0.05 | 0.00 | 99 | 1013.0 | |
| 20260503235547 | 7 | 0.0 | 0.0 | 0.00 | 0.05 | 0.00 | 98 | 1012.9 | |
| 20260503234544 | 6 | 0.0 | 0.0 | 0.00 | 0.05 | 0.00 | 98 | 1012.7 | |
| 20260503233541 | 6 | 0.0 | 0.0 | 0.00 | 0.05 | 0.00 | 98 | 1012.7 | |
| 20260503232537 | 7 | 0.0 | 0.0 | 0.00 | 0.05 | 0.00 | 98 | 1012.8 | |
| 20260503231534 | 6 | 0.0 | 0.0 | 0.00 | 0.05 | 0.00 | 98 | 1012.8 | |
| 20260503230551 | 7 | 0.0 | 0.0 | 0.00 | 0.05 | 0.00 | 98 | 1012.9 | |
| 20260503225528 | 7 | 0.0 | 0.0 | 0.00 | 0.05 | 0.00 | 98 | 1013.1 | |
| 20260503224525 | 7 | 0.0 | 0.0 | 0.00 | 0.05 | 0.00 | 98 | 1013.1 | |
| 20260503223522 | 7 | 0.0 | 0.0 | 0.00 | 0.05 | 0.00 | 98 | 1013.2 | |
| 20260503222518 | 7 | 0.0 | 0.0 | 0.00 | 0.05 | 0.00 | 98 | 1013.2 | |
| 20260503221515 | 7 | 0.0 | 0.0 | 0.00 | 0.05 | 0.00 | 97 | 1013.0 | |
| 20260503220612 | 7 | 0.0 | 0.0 | 0.00 | 0.05 | 0.00 | 97 | 1013.1 | |
| 20260503215609 | 7 | 0.0 | 0.0 | 0.00 | 0.05 | 0.05 | 97 | 1013.0 | |
| 20260503214606 | 8 | 0.0 | 0.0 | 0.00 | 0.05 | 0.05 | 96 | 1013.0 | |
| 20260503213603 | 8 | 0.0 | 0.0 | 0.00 | 0.05 | 0.05 | 96 | 1013.1 | |
| 20260503212600 | 9 | 0.0 | 0.0 | 0.00 | 0.05 | 0.05 | 97 | 1013.0 | |
| 20260503211617 | 8 | 0.0 | 0.0 | 0.00 | 0.05 | 0.05 | 96 | 1012.8 | |
| 20260503210614 | 8 | 0.0 | 0.0 | 0.00 | 0.05 | 0.05 | 96 | 1013.0 | |
| 20260503205610 | 8 | 0.0 | 0.0 | 0.00 | 0.05 | 0.05 | 96 | 1012.9 | |
| 20260503204548 | 8 | 0.0 | 0.0 | 0.00 | 0.05 | 0.05 | 96 | 1013.1 | |
| 20260503203544 | 9 | 0.0 | 0.0 | 0.00 | 0.05 | 0.05 | 95 | 1013.1 | |
| 20260503202541 | 9 | 0.0 | 0.0 | 0.00 | 0.05 | 0.05 | 95 | 1013.1 | |
| 20260503201538 | 10 | 0.0 | 0.0 | 0.00 | 0.05 | 0.05 | 95 | 1013.2 | |
| 20260503200535 | 10 | 0.0 | 3.2 | 0.00 | 0.05 | 0.05 | 95 | 1013.1 | |
| 20260503195551 | 10 | 0.0 | 0.0 | 0.00 | 0.05 | 0.05 | 94 | 1013.0 | |
| 20260503194528 | 10 | 270 | 0.0 | 3.2 | 0.00 | 0.05 | 0.05 | 94 | 1013.0 |
| 20260503193525 | 10 | 0.0 | 3.2 | 0.00 | 0.05 | 0.05 | 93 | 1013.0 | |
| 20260503192522 | 11 | 0.0 | 0.0 | 0.00 | 0.05 | 0.05 | 92 | 1012.9 | |
| 20260503191518 | 11 | 0.0 | 0.0 | 0.00 | 0.05 | 0.05 | 90 | 1012.9 | |
| 20260503190535 | 12 | 0.0 | 0.0 | 0.00 | 0.05 | 0.05 | 88 | 1012.9 | |
| 20260503185613 | 12 | 0.0 | 0.0 | 0.00 | 0.05 | 0.05 | 88 | 1013.0 | |
| 20260503184609 | 13 | 0.0 | 0.0 | 0.00 | 0.05 | 0.05 | 86 | 1012.8 | |
| 20260503183647 | 13 | 0.0 | 3.2 | 0.00 | 0.05 | 0.05 | 82 | 1012.7 | |
| 20260503182603 | 15 | 0.0 | 0.0 | 0.00 | 0.05 | 0.05 | 77 | 1012.7 | |
| 20260503181601 | 15 | 0.0 | 0.0 | 0.00 | 0.05 | 0.05 | 74 | 1012.6 | |
| 20260503180557 | 15 | 248 | 0.0 | 3.2 | 0.00 | 0.05 | 0.05 | 72 | 1012.6 |
| 20260503175554 | 15 | 225 | 0.0 | 3.2 | 0.00 | 0.05 | 0.05 | 73 | 1012.4 |
| 20260503174551 | 15 | 232 | 1.6 | 6.4 | 0.00 | 0.05 | 0.05 | 72 | 1012.5 |
| 20260503173628 | 15 | 248 | 0.0 | 3.2 | 0.00 | 0.05 | 0.05 | 73 | 1012.6 |
| 20260503172545 | 15 | 225 | 0.0 | 3.2 | 0.00 | 0.05 | 0.05 | 71 | 1012.5 |
| 20260503171601 | 15 | 193 | 1.6 | 6.4 | 0.00 | 0.05 | 0.05 | 70 | 1012.6 |
| 20260503170539 | 15 | 113 | 1.6 | 6.4 | 0.00 | 0.05 | 0.05 | 70 | 1012.7 |